Regional Weather Roundup
Issued by NWS

Home | Current Version | Previous Version | Graphics & Text | Print | Product List | Glossary On
Versions: 1 2 3 4 5 6 7 8 9 10 11 12 13 14 15 16 17 18 19 20 21 22 23 24 25 26 27 28 29 30 31 32 33 34 35 36 37 38 39 40 41 42 43 44 45 46 47 48 49 50
000
ASUS45 KBOU 300810
RWRCO

WEATHER ROUNDUP FOR COLORADO
NATIONAL WEATHER SERVICE DENVER/BOULDER CO
200 AM MDT THU JUL 30 2015

NOTE: "FAIR" INDICATES FEW OR NO CLOUDS BELOW 12000 FEET WITH NO
SIGNIFICANT WEATHER AND/OR OBSTRUCTIONS TO VISIBILITY.

COZ001>005-013-030-031-300900-
...NORTHWEST COLORADO...

CITY           SKY/WX    TMP DP  RH WIND       PRES   REMARKS
CRAIG          CLEAR     42  33  70 NW3       30.39R
HAYDEN         CLEAR     52  27  37 E8        30.39S
MEEKER         CLEAR     47  29  49 NE5       30.39S
MOUNT WERNER   NOT AVBL
STEAMBOAT SPGS CLEAR     46  32  57 CALM      30.43R
WALDEN         CLEAR     36  30  80 SE12      30.50S
$$

COZ006>008-011-300900-
...WEST CENTRAL VALLEYS...

CITY           SKY/WX    TMP DP  RH WIND       PRES   REMARKS
GRAND JUNCTION PTCLDY    66  28  24 E5        30.23R
MONTROSE       PTCLDY    63  32  31 SE6       30.34R
EAGLE          CLEAR     54  30  40 CALM      30.44R
RIFLE          CLEAR     60  29  30 CALM      30.32R
DELTA          PTCLDY    63  35  35 NE3       30.30R
NUCLA          PTCLDY    64  32  29 E8        30.38R
$$

COZ017>023-064>068-300900-
...SOUTHWEST COLORADO...

CITY           SKY/WX    TMP DP  RH WIND       PRES   REMARKS
DURANGO        PTCLDY    57  46  66 CALM      30.43S
CORTEZ         CLEAR     60  46  59 NE7       30.36R
PAGOSA SPRINGS MOCLDY    56  46  68 CALM      30.51S
TELLURIDE      PTCLDY    55  38  51 SE5       30.59R
WOLF CREEK PAS NOT AVBL
$$

COZ009-010-012-014-032>034-037-058>063-300900-
...CENTRAL COLORADO...

CITY           SKY/WX    TMP DP  RH WIND       PRES   REMARKS
ASPEN          PTCLDY    52  35  52 SW9       30.48S
BUENA VISTA    CLEAR     51  49  90 CALM      30.54F
COPPER MTN     PTCLDY    52  28  40 S12       30.80S
BERTHOUD PASS  FAIR      43  34  70 W9        30.83S
COTTONWOOD PAS CLEAR     54  46  76 W5        30.66S
GUNNISON       NOT AVBL
KREMMLING      CLEAR     43  28  56 CALM      30.49S
LEADVILLE      PTCLDY    46  44  93 NE5       30.65S
MONARCH PASS   PTCLDY    46  37  71 S9        30.90S
SALIDA         CLEAR     58  47  67 W6        30.58S
SUNLIGHT       CLEAR     54  23  30 NE3       30.72S
WILKERSON PASS PTCLDY    46  36  66 W8        30.76F
$$

COZ069>075-300900-
...SAN LUIS VALLEY/SANGRE DE CRISTO MOUNTAINS...

CITY           SKY/WX    TMP DP  RH WIND       PRES   REMARKS
ALAMOSA        MOCLDY    54  49  83 SE5       30.50S
LA VETA PASS   PTCLDY    46  43  87 MISG      30.67S
SAGUACHE       PTCLDY    54  46  76 N8        30.52F
$$

COZ035-036-038>040-300900-
...NORTHERN COLORADO FRONT RANGE...

CITY           SKY/WX    TMP DP  RH WIND       PRES   REMARKS
DENVER INTL AP PTCLDY    66  49  54 S14       30.28F
DMNS CITY PARK   N/A     67  52  59 SE8       30.28S
AURORA         PTCLDY    67  51  56 S15       30.31S
FRONT RANGE AP NOT AVBL
ERIE MUNI ARPT CLEAR     59  53  81 CALM      30.28S
BOULDER MUN AP CLEAR     64  52  63 W3        30.29R
CENTENNIAL     MOCLDY    64  50  60 S10       30.32F
BROOMFIELD     CLEAR     64  50  59 NW3       30.31S
FORT COLLINS   CLEAR     61  48  63 N8        30.30R
LONGMONT       CLEAR     66  53  63 NW3       30.30R
$$

COZ041-046-047-076>085-087-088-300900-
...PIKES PEAK/PALMER DIVIDE AND SOUTHERN FOOTHILLS...

CITY           SKY/WX    TMP DP  RH WIND       PRES   REMARKS
COLO. SPRINGS  MOCLDY    63  52  67 N3        30.40S
A. F. ACADEMY  PTCLDY    58  50  74 SW2       30.41S
ELLICOTT       MOCLDY   N/A N/A N/A SE8       30.39R
FALCON         MOCLDY    57  52  81 CALM      30.45S
FORT CARSON    MOCLDY    62  51  69 N5        30.36F
LIMON          MOCLDY    57  54  89 SE5       30.36S
MONUMENT HILL  NOT AVBL
TRINIDAD       MOCLDY    62  54  74 W6        30.37F
$$

COZ042>045-048>051-090-091-300900-
...NORTHEAST COLORADO...

CITY           SKY/WX    TMP DP  RH WIND       PRES   REMARKS
GREELEY ARPT   PTCLDY    61  50  67 E7        30.27F
AKRON          PTCLDY    60  53  77 S12       30.31R
BURLINGTON     PTCLDY    60  55  83 S9        30.31F
WRAY           CLEAR     61  53  74 S5        30.29R
STERLING       PTCLDY    63  52  67 S8        30.26S
HOLYOKE        CLEAR     59  52  77 S6        30.28S
FORT MORGAN    PTCLDY    58  50  74 NE7       30.29S
$$

COZ086-089-092>099-300900-
...SOUTHEAST COLORADO...

CITY           SKY/WX    TMP DP  RH WIND       PRES   REMARKS
PUEBLO         MOCLDY    68  49  50 E6        30.29S
LA JUNTA       PTCLDY    72  64  76 E6        30.28S
LAMAR          MOCLDY    67  63  87 E6        30.26F
SPRINGFIELD      N/A     63  62  97 CALM      30.30F
$$



USA.gov is the U.S. government's official web portal to all federal, state and local government web resources and services.